Sugar Grove, IL

7:53 AM CST on December 09, 2016 (GMT -0600)
Aurora Municipal

Weather History for KARR - December, 2013

Change the Weather History Date:

Sunday, December 1, 2013

  Actual Average Record
Temperature  
Mean Temperature 34 °F 30 °F  
Max Temperature 46 °F 39 °F 59 °F (2012)
Min Temperature 22 °F 22 °F 10 °F (2002)
Degree Days  
Heating Degree Days 31 35  
Month to date heating degree days 31 35  
Since 1 July heating degree days 1481 1449  
Cooling Degree Days 0 0  
Month to date cooling degree days 0 0  
Year to date cooling degree days 745 655  
Moisture  
Dew Point 27 °F    
Average Humidity 73    
Maximum Humidity 92    
Minimum Humidity 53    
Precipitation  
Precipitation 0.00 in 0.09 in 0.26 in (2007)
Month to date precipitation 0.00 0.09  
Year to date precipitation 32.83 34.99  
Sea Level Pressure  
Sea Level Pressure 30.07 in    
Wind  
Wind Speed 4 mph (North)    
Max Wind Speed 10 mph    
Max Gust Speed 13 mph    
Visibility 6 miles    
Events      
T = Trace of Precipitation, MM = Missing Value Source: NWS Daily Summary

Daily Weather History Graph

Daily Weather History Graph

Search for Another Location

Airport or City:

Trip Planner

Search our weather history database for the weather conditions in past years. The results will help you decide how hot, cold, wet, or windy it might be!

Date:

Astronomy

Dec. 01, 2013 Rise Set
Actual Time 7:01 AM CST 4:24 PM CST
Civil Twilight 6:30 AM CST 4:55 PM CST
Nautical Twilight 5:56 AM CST 5:29 PM CST
Astronomical Twilight 5:22 AM CST 6:03 PM CST
Moon 5:18 AM CST (12/1) 3:34 PM CST (12/1)
Length of Visible Light 10h 24m
Length of Day
9h 22m
Waning Crescent, 2% of the Moon is Illuminated
Dec 1
Waning Crescent
Dec 2
New
Dec 9
First Quarter
Dec 17
Full
Dec 25
Last Quarter

Hourly Weather History & Observations

Time (CST) Temp. Windchill Dew Point Humidity Pressure Visibility Wind Dir Wind Speed Gust Speed Precip Events Conditions
12:52 AM 24.1 °F - 21.0 °F 88% 30.08 in 6.0 mi Calm Calm - N/A   Clear
1:52 AM 24.1 °F - 23.0 °F 96% 30.07 in 5.0 mi Calm Calm - N/A   Clear
2:52 AM 21.9 °F 15.7 °F 19.9 °F 92% 30.08 in 5.0 mi WNW 4.6 mph - N/A   Clear
3:52 AM 26.1 °F 21.9 °F 23.0 °F 88% 30.08 in 6.0 mi NW 3.5 mph - N/A   Clear
4:52 AM 28.9 °F 25.2 °F 26.1 °F 89% 30.09 in 6.0 mi NW 3.5 mph - N/A   Clear
5:52 AM 30.9 °F 25.2 °F 28.0 °F 89% 30.09 in 5.0 mi NW 5.8 mph - N/A   Clear
6:52 AM 30.0 °F 25.2 °F 28.0 °F 92% 30.11 in 5.0 mi West 4.6 mph - N/A   Clear
7:52 AM 32.0 °F 26.4 °F 28.0 °F 85% 30.12 in 4.0 mi NNW 5.8 mph - N/A   Clear
8:52 AM 32.0 °F - 28.9 °F 88% 30.13 in 4.0 mi Calm Calm - N/A   Clear
9:52 AM 39.0 °F 32.8 °F 32.0 °F 76% 30.14 in 5.0 mi NNE 9.2 mph - N/A   Haze
10:52 AM 41.0 °F 37.1 °F 32.0 °F 70% 30.13 in 6.0 mi NE 5.8 mph - N/A   Haze
11:52 AM 43.0 °F 38.2 °F 30.9 °F 62% 30.09 in 6.0 mi NE 8.1 mph - N/A   Haze
12:52 PM 43.0 °F - 30.0 °F 60% 30.09 in 7.0 mi Calm Calm - N/A   Clear
1:52 PM 46.0 °F - 30.0 °F 54% 30.06 in 7.0 mi Calm Calm - N/A   Clear
2:52 PM 44.1 °F 42.5 °F 28.9 °F 55% 30.06 in 7.0 mi NNE 3.5 mph - N/A   Clear
3:52 PM 39.0 °F 34.8 °F 28.0 °F 65% 30.05 in 6.0 mi North 5.8 mph - N/A   Haze
4:52 PM 33.1 °F 28.7 °F 25.0 °F 72% 30.06 in 7.0 mi NNW 4.6 mph - N/A   Clear
5:52 PM 30.0 °F 23.2 °F 24.1 °F 79% 30.06 in 6.0 mi NNE 6.9 mph - N/A   Haze
6:52 PM 30.9 °F 26.2 °F 27.0 °F 85% 30.05 in 5.0 mi NE 4.6 mph - N/A   Partly Cloudy
7:52 PM 32.0 °F 27.5 °F 28.0 °F 85% 30.06 in 5.0 mi NE 4.6 mph - N/A   Clear
8:52 PM 30.9 °F 27.5 °F 27.0 °F 85% 30.04 in 5.0 mi NE 3.5 mph - N/A   Scattered Clouds
9:52 PM 30.0 °F 26.5 °F 27.0 °F 88% 30.04 in 5.0 mi NE 3.5 mph - N/A   Scattered Clouds
10:52 PM 30.9 °F 27.5 °F 28.0 °F 89% 30.02 in 4.0 mi NNE 3.5 mph - N/A   Overcast
11:52 PM 30.9 °F - 28.0 °F 89% 30.00 in 5.0 mi Calm Calm - N/A   Overcast